This is the latest recevied weather packets stored in our database for station/object KF0JJO. If no packets are shown the sender has not sent any weather packets the latest 10 day(s).
| Time | Temp. | Humidity | Pressure | Rain* | Wind** | Luminosity | Snow |
|---|---|---|---|---|---|---|---|
| 1777867030 | 12.22° C | 47% | 1034.3 hPa | 0 mm | - | 0 W/m² | - |
| 1777866728 | 12.22° C | 46% | 1034.4 hPa | 0 mm | - | 0 W/m² | - |
| 1777866425 | 12.22° C | 46% | 1034.4 hPa | 0 mm | - | 0 W/m² | - |
| 1777866122 | 12.78° C | 45% | 1034.5 hPa | 0 mm | - | 0 W/m² | - |
| 1777865819 | 12.78° C | 44% | 1034.8 hPa | 0 mm | - | 0 W/m² | - |
| 1777865516 | 12.78° C | 42% | 1034.9 hPa | 0 mm | - | 0 W/m² | - |
| 1777865213 | 13.33° C | 41% | 1034.7 hPa | 0 mm | - | 0 W/m² | - |
| 1777864910 | 13.33° C | 41% | 1034.7 hPa | 0 mm | - | 0 W/m² | - |
| 1777864607 | 13.89° C | 41% | 1034.9 hPa | 0 mm | - | 0 W/m² | - |
| 1777864303 | 13.89° C | 40% | 1034.9 hPa | 0 mm | - | 0 W/m² | - |
| 1777864000 | 13.89° C | 39% | 1035.2 hPa | 0 mm | - | 0 W/m² | - |
| 1777863697 | 14.44° C | 39% | 1035.1 hPa | 0 mm | - | 0 W/m² | - |
| 1777863394 | 14.44° C | 37% | 1035 hPa | 0 mm | - | 0 W/m² | - |
| 1777863091 | 15° C | 36% | 1035.2 hPa | 0 mm | - | 0 W/m² | - |
| 1777862788 | 15° C | 36% | 1034.9 hPa | 0 mm | - | 0 W/m² | - |
| 1777862485 | 15° C | 35% | 1035 hPa | 0 mm | - | 0 W/m² | - |
| 1777862181 | 15.56° C | 35% | 1035.1 hPa | 0 mm | - | 0 W/m² | - |
| 1777861877 | 15.56° C | 34% | 1035.1 hPa | 0 mm | - | 0 W/m² | - |
| 1777861574 | 16.11° C | 33% | 1035.1 hPa | 0 mm | - | 0 W/m² | - |
| 1777861269 | 16.11° C | 33% | 1035.1 hPa | 0 mm | - | 0 W/m² | - |
| 1777860968 | 16.11° C | 33% | 1035.1 hPa | 0 mm | - | 0 W/m² | - |
| 1777860664 | 16.11° C | 31% | 1035.2 hPa | 0 mm | - | 0 W/m² | - |
| 1777860361 | 16.67° C | 32% | 1035.3 hPa | 0 mm | - | 0 W/m² | - |
| 1777860057 | 16.67° C | 30% | 1035.1 hPa | 0 mm | - | 0 W/m² | - |
| 1777859754 | 16.67° C | 30% | 1035.1 hPa | 0 mm | - | 0 W/m² | - |
* Rain latest hour (hover to see other rain measurements)
** Current wind speed in m/s (hover to see current wind gust speed)